Weather History for La Porte, IN

Change the Weather History Date:

Thursday, October 17, 2013

  Actual Average (KVPZ) Record (KVPZ)
Temperature  
Mean Temperature 44 °F 52 °F  
Max Temperature 51 °F 62 °F 74 °F (2007)
Min Temperature 35 °F 42 °F 30 °F (2003)
Degree Days  
Heating Degree Days 22 13  
Month to date heating degree days 187  
Since 1 July heating degree days 317  
Cooling Degree Days 0 0  
Month to date cooling degree days 11  
Year to date cooling degree days 713  
Moisture  
Dew Point 43 °F    
Average Humidity 88    
Maximum Humidity 99    
Minimum Humidity 70    
Precipitation  
Precipitation 0.07 in 0.11 in 0.73 in (2012)
Month to date precipitation 1.77  
Year to date precipitation 30.52  
Sea Level Pressure  
Sea Level Pressure 29.89 in    
Wind  
Wind Speed 6 mph (WSW)    
Max Wind Speed 18 mph    
Max Gust Speed 25 mph    
Visibility 9 miles    
Events Rain    
T = Trace of Precipitation, MM = Missing Value Source: NWS Daily Summary

Daily Weather History Graph

Daily Weather History Graph

Search for Another Location

Airport:

Trip Planner

Search our weather history database for the weather conditions in past years. The results will help you decide how hot, cold, wet, or windy it might be!

Date:

Astronomy

Oct. 17, 2013 Rise Set
Actual Time 7:01 AM CDT 6:02 PM CDT
Civil Twilight 6:33 AM CDT 6:30 PM CDT
Nautical Twilight 6:01 AM CDT 7:02 PM CDT
Astronomical Twilight 5:29 AM CDT 7:34 PM CDT
Moon 5:16 PM CDT (10/17) 5:32 AM CDT (10/17)
Length of Visible Light 11h 56m
Length of Day
11h 00m
Waxing Gibbous, 98% of the Moon is Illuminated
Oct 17
Waxing Gibbous
Oct 18
Full
Oct 26
Last Quarter
Nov 3
New
Nov 9
First Quarter

Hourly Weather History & Observations

Time (CDT) Temp. Windchill Dew Point Humidity Pressure Visibility Wind Dir Wind Speed Gust Speed Precip Events Conditions
12:15 AM 49.1 °F - 44.6 °F 84% 29.93 in 10.0 mi WSW 4.6 mph - N/A   Overcast
12:35 AM 49.1 °F - 44.6 °F 84% 29.93 in 10.0 mi SW 4.6 mph - N/A   Overcast
12:55 AM 49.1 °F - 44.8 °F 85% 29.94 in 10.0 mi SW 5.8 mph - N/A   Overcast
1:15 AM 49.1 °F - 44.8 °F 85% 29.94 in 10.0 mi SW 5.8 mph - N/A   Overcast
1:35 AM 48.7 °F - 44.6 °F 86% 29.94 in 10.0 mi SW 6.9 mph - N/A   Overcast
1:55 AM 48.7 °F - 44.8 °F 86% 29.93 in 10.0 mi WSW 6.9 mph - N/A   Overcast
2:15 AM 48.6 °F - 44.6 °F 86% 29.93 in 10.0 mi WSW 6.9 mph - N/A   Overcast
2:35 AM 48.6 °F - 44.6 °F 86% 29.93 in 10.0 mi WSW 5.8 mph - N/A   Overcast
2:55 AM 48.4 °F - 44.6 °F 87% 29.92 in 10.0 mi WSW 3.5 mph - N/A   Overcast
3:15 AM 48.2 °F - 44.8 °F 88% 29.91 in 10.0 mi WSW 4.6 mph - N/A   Overcast
3:35 AM 47.8 °F - 44.8 °F 89% 29.91 in 10.0 mi West 4.6 mph - N/A   Overcast
3:55 AM 48.2 °F - 44.6 °F 87% 29.91 in 10.0 mi WSW 5.8 mph - N/A   Overcast
4:15 AM 47.7 °F - 44.6 °F 89% 29.91 in 10.0 mi WSW 3.5 mph - N/A   Overcast
4:35 AM 47.5 °F - 44.6 °F 90% 29.91 in 10.0 mi WSW 5.8 mph - N/A   Overcast
4:55 AM 47.5 °F - 44.8 °F 90% 29.91 in 10.0 mi WSW 4.6 mph - N/A   Overcast
5:15 AM 47.3 °F - 44.8 °F 91% 29.91 in 10.0 mi SW 4.6 mph - N/A   Overcast
5:35 AM 47.3 °F - 45.0 °F 92% 29.91 in 10.0 mi WSW 5.8 mph - N/A   Overcast
5:55 AM 47.3 °F - 45.0 °F 92% 29.90 in 10.0 mi Calm Calm - N/A   Overcast
6:15 AM 47.3 °F - 44.8 °F 91% 29.88 in 10.0 mi Calm Calm - N/A   Overcast
6:35 AM 46.8 °F - 44.6 °F 92% 29.88 in 10.0 mi WSW 3.5 mph - N/A   Mostly Cloudy
6:55 AM 46.6 °F - 44.8 °F 93% 29.88 in 7.0 mi WSW 4.6 mph - N/A   Overcast
7:15 AM 46.8 °F - 45.3 °F 95% 29.89 in 7.0 mi SW 4.6 mph - N/A   Overcast
7:35 AM 46.8 °F - 45.5 °F 95% 29.89 in 7.0 mi SW 5.8 mph - N/A   Overcast
7:55 AM 46.9 °F - 45.5 °F 95% 29.89 in 7.0 mi SW 5.8 mph - N/A   Overcast
8:15 AM 47.3 °F - 45.5 °F 93% 29.88 in 7.0 mi SW 4.6 mph - N/A Rain Light Rain
8:35 AM 47.5 °F - 45.5 °F 93% 29.88 in 7.0 mi SW 4.6 mph - N/A Rain Rain
8:55 AM 47.7 °F - 45.9 °F 93% 29.89 in 7.0 mi SW 9.2 mph - N/A Rain Light Rain
9:15 AM 47.5 °F - 46.0 °F 95% 29.88 in 5.0 mi WSW 8.1 mph - 0.01 in Rain Light Rain
9:35 AM 47.3 °F - 46.0 °F 95% 29.89 in 5.0 mi SW 10.4 mph - 0.01 in Rain Light Rain
9:55 AM 47.3 °F - 46.0 °F 95% 29.89 in 5.0 mi SW 10.4 mph - 0.02 in Rain Light Rain
10:15 AM 47.3 °F - 46.4 °F 97% 29.88 in 5.0 mi SW 8.1 mph - 0.01 in Rain Rain
10:35 AM 47.7 °F - 46.6 °F 96% 29.88 in 5.0 mi SW 11.5 mph - 0.01 in Rain Rain
10:55 AM 47.8 °F - 46.4 °F 95% 29.88 in 7.0 mi SW 12.7 mph - 0.02 in Rain Light Rain
11:15 AM 47.5 °F - 45.9 °F 94% 29.88 in 7.0 mi SW 9.2 mph 17.3 mph N/A Rain Light Rain
11:35 AM 47.3 °F - 45.7 °F 94% 29.87 in 5.0 mi WSW 13.8 mph 18.4 mph N/A Rain Rain
11:55 AM 46.4 °F 41.1 °F 45.0 °F 95% 29.87 in 5.0 mi West 11.5 mph 20.7 mph 0.03 in Rain Rain
12:15 PM 47.5 °F - 45.7 °F 93% 29.86 in 7.0 mi West 15.0 mph - N/A   Light Drizzle
12:35 PM 47.3 °F - 45.0 °F 92% 29.86 in 10.0 mi WSW 11.5 mph 16.1 mph N/A   Light Drizzle
12:55 PM 48.2 °F - 45.9 °F 92% 29.85 in 7.0 mi WSW 9.2 mph - N/A Rain Rain
1:15 PM 48.0 °F - 45.3 °F 90% 29.85 in 5.0 mi WSW 12.7 mph 21.9 mph N/A   Drizzle
1:35 PM 49.1 °F - 46.4 °F 90% 29.84 in 10.0 mi West 16.1 mph 20.7 mph N/A   Overcast
1:55 PM 49.1 °F - 44.4 °F 84% 29.83 in 10.0 mi West 10.4 mph - N/A   Mostly Cloudy
2:15 PM 50.5 °F - 45.3 °F 82% 29.83 in 10.0 mi West 18.4 mph 25.3 mph N/A   Scattered Clouds
2:35 PM 50.4 °F - 45.3 °F 83% 29.83 in 10.0 mi West 12.7 mph 20.7 mph N/A   Mostly Cloudy
2:55 PM 50.5 °F - 42.4 °F 74% 29.83 in 10.0 mi WSW 15.0 mph 19.6 mph N/A   Overcast
3:15 PM 49.5 °F - 41.4 °F 74% 29.84 in 10.0 mi WSW 13.8 mph - N/A   Overcast
3:35 PM 49.1 °F - 41.2 °F 74% 29.84 in 10.0 mi West 13.8 mph 19.6 mph N/A   Overcast
3:55 PM 49.1 °F - 41.9 °F 76% 29.84 in 10.0 mi WSW 12.7 mph - N/A   Overcast
4:15 PM 49.1 °F - 42.1 °F 77% 29.84 in 10.0 mi WSW 9.2 mph - N/A   Overcast
4:35 PM 49.1 °F - 41.2 °F 74% 29.84 in 10.0 mi West 11.5 mph 19.6 mph N/A   Overcast
4:55 PM 49.5 °F - 40.1 °F 70% 29.85 in 10.0 mi West 13.8 mph 20.7 mph N/A   Overcast
5:15 PM 49.6 °F - 40.1 °F 70% 29.85 in 10.0 mi West 6.9 mph 20.7 mph N/A   Overcast
5:35 PM 49.5 °F - 40.1 °F 70% 29.86 in 10.0 mi West 9.2 mph - N/A   Overcast
5:55 PM 48.6 °F - 40.1 °F 73% 29.86 in 10.0 mi West 6.9 mph - N/A   Mostly Cloudy
6:15 PM 47.5 °F - 40.1 °F 76% 29.87 in 10.0 mi West 4.6 mph - N/A   Mostly Cloudy
6:35 PM 46.6 °F - 39.7 °F 77% 29.88 in 10.0 mi West 4.6 mph - N/A   Scattered Clouds
6:55 PM 45.9 °F 44.6 °F 39.9 °F 80% 29.88 in 10.0 mi WSW 3.5 mph - N/A   Scattered Clouds
7:15 PM 45.5 °F - 40.1 °F 81% 29.88 in 10.0 mi Calm Calm - N/A   Mostly Cloudy
7:35 PM 43.2 °F 41.5 °F 39.0 °F 85% 29.89 in 10.0 mi West 3.5 mph - N/A   Clear
7:55 PM 40.6 °F 38.6 °F 37.8 °F 89% 29.89 in 10.0 mi SW 3.5 mph - N/A   Clear
8:15 PM 40.5 °F - 39.0 °F 95% 29.90 in 10.0 mi Calm Calm - N/A   Clear
8:35 PM 39.6 °F - 38.3 °F 95% 29.90 in 10.0 mi Calm Calm - N/A   Clear
8:55 PM 40.3 °F 38.2 °F 39.4 °F 97% 29.91 in 10.0 mi SW 3.5 mph - N/A   Scattered Clouds
9:15 PM 40.1 °F - 39.2 °F 97% 29.91 in 10.0 mi Calm Calm - N/A   Scattered Clouds
9:35 PM 39.7 °F - 38.8 °F 97% 29.91 in 7.0 mi Calm Calm - N/A   Clear
9:55 PM 41.0 °F - 40.3 °F 97% 29.91 in 10.0 mi Calm Calm - N/A   Scattered Clouds
10:15 PM 38.3 °F 35.9 °F 37.4 °F 97% 29.91 in 7.0 mi SSW 3.5 mph - N/A   Mostly Cloudy
10:35 PM 38.3 °F 34.8 °F 37.6 °F 97% 29.90 in 7.0 mi SSW 4.6 mph - N/A   Scattered Clouds
10:55 PM 39.2 °F 37.0 °F 38.5 °F 97% 29.90 in 7.0 mi SW 3.5 mph - N/A   Clear
11:15 PM 38.5 °F - 37.9 °F 98% 29.90 in 7.0 mi Calm Calm - N/A   Clear
11:35 PM 37.0 °F - 36.7 °F 99% 29.90 in 5.0 mi Calm Calm - N/A   Clear
11:55 PM 35.8 °F - 35.6 °F 99% 29.89 in 3.0 mi Calm Calm - N/A   Mist